Total_Precipitation_Accumulation
0.58 0.66 0.55 0.38 0.31 0.32 0.35 0.34 0.37 0.45 0.55 0.61 0.58 0.52 0.50 0.55 0.67 0.82 0.89 0.98 1.06 1.10 1.17 1.19 1.18 1.20 1.25 1.22 1.29 1.42 1.57 1.70 1.57 1.51 1.43 1.38 1.30 1.19 1.05 0.82 0.68 0.57 0.50
1.03 1.11 0.96 0.58 0.36 0.29 0.24 0.23 0.30 0.42 0.52 0.57 0.54 0.49 0.48 0.54 0.67 0.81 0.97 1.17 1.29 1.25 1.18 1.09 1.02 1.07 1.14 1.16 1.26 1.29 1.35 1.54 1.55 1.55 1.56 1.58 1.47 1.28 1.18 1.02 0.80 0.65 0.62
0.93 1.04 0.84 0.46 0.26 0.20 0.18 0.23 0.36 0.48 0.52 0.52 0.54 0.59 0.69 0.77 0.88 1.00 1.06 1.20 1.25 1.16 1.11 1.04 0.97 0.96 0.98 1.06 1.16 1.24 1.24 1.32 1.44 1.49 1.55 1.62 1.60 1.40 1.21 1.08 0.95 0.91 0.83
0.53 0.68 0.55 0.32 0.21 0.17 0.18 0.23 0.29 0.32 0.38 0.47 0.60 0.77 0.88 0.94 0.97 1.04 1.03 1.00 1.00 0.92 0.85 0.80 0.85 0.95 0.99 0.96 0.95 0.99 1.06 1.16 1.24 1.31 1.43 1.56 1.61 1.54 1.30 1.19 1.15 1.05 0.97
0.43 0.54 0.43 0.27 0.19 0.13 0.11 0.13 0.18 0.26 0.32 0.45 0.61 0.71 0.71 0.73 0.80 0.88 0.89 0.86 0.82 0.76 0.67 0.53 0.53 0.71 0.85 0.87 0.82 0.83 0.85 0.93 1.00 1.10 1.22 1.38 1.49 1.55 1.37 1.18 1.13 1.14 1.09
0.37 0.49 0.43 0.33 0.21 0.13 0.11 0.13 0.20 0.26 0.32 0.40 0.49 0.50 0.46 0.36 0.35 0.39 0.48 0.56 0.61 0.61 0.53 0.47 0.46 0.50 0.54 0.56 0.61 0.66 0.71 0.76 0.86 1.00 1.13 1.22 1.25 1.33 1.40 1.37 1.29 1.24 1.21
0.37 0.46 0.47 0.42 0.32 0.24 0.17 0.17 0.23 0.29 0.33 0.39 0.39 0.40 0.41 0.40 0.27 0.20 0.21 0.32 0.41 0.44 0.44 0.45 0.37 0.34 0.36 0.34 0.35 0.36 0.40 0.47 0.59 0.78 0.98 1.07 1.16 1.16 1.34 1.41 1.39 1.45 1.46
0.31 0.44 0.50 0.49 0.45 0.43 0.33 0.31 0.34 0.38 0.41 0.45 0.42 0.41 0.45 0.42 0.29 0.21 0.17 0.20 0.31 0.35 0.37 0.37 0.36 0.39 0.39 0.36 0.34 0.33 0.30 0.30 0.34 0.44 0.65 0.89 1.06 1.21 1.25 1.35 1.40 1.45 1.45
0.26 0.41 0.50 0.52 0.51 0.49 0.48 0.47 0.50 0.54 0.50 0.47 0.46 0.48 0.50 0.50 0.36 0.23 0.18 0.25 0.37 0.38 0.38 0.37 0.36 0.37 0.35 0.30 0.34 0.35 0.34 0.34 0.30 0.33 0.44 0.66 0.86 0.95 1.12 1.28 1.38 1.29 1.24
0.28 0.39 0.54 0.64 0.69 0.69 0.66 0.61 0.61 0.70 0.63 0.57 0.52 0.54 0.58 0.65 0.54 0.31 0.23 0.34 0.50 0.54 0.56 0.52 0.41 0.37 0.33 0.25 0.29 0.36 0.34 0.33 0.33 0.31 0.30 0.41 0.58 0.72 0.79 0.88 1.02 1.08 0.99
0.31 0.37 0.51 0.71 0.81 0.81 0.83 0.79 0.76 0.77 0.78 0.78 0.70 0.70 0.72 0.77 0.68 0.39 0.29 0.41 0.58 0.69 0.71 0.66 0.56 0.42 0.31 0.27 0.27 0.33 0.34 0.36 0.42 0.44 0.42 0.43 0.55 0.70 0.71 0.71 0.77 0.84 0.81
0.39 0.47 0.58 0.71 0.65 0.66 0.89 0.94 0.96 1.00 0.99 0.94 0.89 0.82 0.81 0.83 0.75 0.50 0.31 0.41 0.59 0.79 0.86 0.82 0.72 0.53 0.38 0.33 0.32 0.31 0.29 0.30 0.39 0.46 0.48 0.45 0.48 0.59 0.68 0.68 0.69 0.71 0.71
0.50 0.56 0.63 0.70 0.80 0.93 1.01 1.03 1.06 1.10 1.11 1.04 0.99 0.95 0.91 0.93 0.89 0.57 0.40 0.47 0.58 0.76 0.96 0.98 0.80 0.63 0.53 0.42 0.39 0.40 0.36 0.33 0.41 0.44 0.44 0.43 0.42 0.49 0.63 0.73 0.76 0.75 0.72
0.58 0.59 0.63 0.74 0.83 0.95 1.12 1.18 1.19 1.15 1.14 1.12 1.04 1.00 1.00 1.05 1.08 0.83 0.60 0.60 0.69 0.77 0.91 0.97 0.87 0.72 0.64 0.55 0.48 0.47 0.45 0.44 0.48 0.48 0.47 0.49 0.48 0.52 0.58 0.65 0.72 0.73 0.70
0.67 0.66 0.66 0.75 0.89 0.97 1.09 1.18 1.19 1.23 1.07 1.01 0.95 0.92 0.94 1.03 1.05 0.86 0.77 0.80 0.92 0.97 0.96 1.01 1.01 0.87 0.76 0.67 0.61 0.62 0.62 0.58 0.53 0.55 0.56 0.57 0.54 0.53 0.56 0.57 0.60 0.61 0.59
0.82 0.74 0.70 0.76 0.89 0.99 1.09 1.10 0.94 0.88 0.71 0.63 0.64 0.61 0.65 0.72 0.82 0.71 0.62 0.72 0.89 0.96 0.93 0.97 1.03 0.98 0.88 0.78 0.71 0.72 0.71 0.67 0.62 0.61 0.60 0.59 0.56 0.51 0.52 0.53 0.54 0.54 0.53
0.95 0.85 0.78 0.77 0.86 0.94 1.04 1.17 1.21 0.99 0.75 0.59 0.52 0.45 0.47 0.54 0.63 0.63 0.60 0.66 0.77 0.82 0.84 0.88 0.92 0.95 0.89 0.84 0.78 0.76 0.72 0.71 0.70 0.66 0.63 0.62 0.58 0.52 0.49 0.50 0.48 0.49 0.51
1.01 0.90 0.82 0.83 0.87 0.90 0.96 1.09 1.25 1.25 1.03 0.72 0.57 0.47 0.41 0.44 0.48 0.54 0.57 0.63 0.73 0.76 0.76 0.79 0.82 0.83 0.81 0.81 0.80 0.80 0.77 0.75 0.70 0.68 0.64 0.61 0.56 0.48 0.47 0.46 0.42 0.42 0.44
0.97 0.90 0.82 0.85 0.87 0.86 0.92 1.00 1.09 1.16 1.09 0.93 0.76 0.58 0.46 0.41 0.45 0.51 0.52 0.59 0.72 0.73 0.69 0.71 0.73 0.71 0.72 0.74 0.73 0.76 0.75 0.69 0.65 0.64 0.61 0.55 0.51 0.44 0.41 0.41 0.41 0.42 0.42
0.94 0.75 0.68 0.73 0.79 0.82 0.89 0.95 0.99 1.06 1.05 0.97 0.84 0.61 0.44 0.41 0.48 0.53 0.55 0.64 0.72 0.69 0.63 0.64 0.60 0.59 0.61 0.64 0.66 0.69 0.67 0.64 0.61 0.56 0.54 0.49 0.44 0.40 0.36 0.35 0.34 0.34 0.35
0.91 0.76 0.58 0.58 0.68 0.75 0.83 0.89 0.92 0.92 0.93 0.89 0.74 0.50 0.33 0.33 0.43 0.52 0.60 0.64 0.63 0.61 0.55 0.51 0.47 0.49 0.50 0.51 0.52 0.55 0.57 0.57 0.53 0.48 0.48 0.43 0.38 0.37 0.35 0.35 0.32 0.31 0.32
0.90 0.82 0.66 0.57 0.60 0.65 0.73 0.82 0.82 0.78 0.76 0.73 0.63 0.44 0.30 0.29 0.39 0.49 0.53 0.52 0.49 0.48 0.45 0.41 0.39 0.40 0.39 0.40 0.40 0.42 0.47 0.48 0.46 0.44 0.42 0.39 0.37 0.36 0.36 0.37 0.35 0.33 0.34
0.87 0.78 0.67 0.60 0.61 0.59 0.63 0.72 0.70 0.65 0.61 0.56 0.49 0.39 0.30 0.31 0.37 0.45 0.46 0.44 0.42 0.39 0.37 0.34 0.31 0.31 0.34 0.34 0.32 0.33 0.36 0.36 0.37 0.37 0.36 0.35 0.35 0.35 0.36 0.36 0.33 0.31 0.31
0.79 0.75 0.63 0.58 0.60 0.63 0.62 0.63 0.57 0.52 0.47 0.40 0.34 0.31 0.29 0.34 0.38 0.39 0.39 0.37 0.34 0.31 0.27 0.25 0.26 0.29 0.31 0.31 0.28 0.28 0.29 0.29 0.29 0.31 0.31 0.30 0.30 0.32 0.33 0.35 0.32 0.29 0.30
0.77 0.77 0.66 0.56 0.54 0.56 0.54 0.52 0.48 0.45 0.38 0.30 0.28 0.29 0.31 0.32 0.32 0.34 0.32 0.28 0.25 0.25 0.23 0.24 0.28 0.29 0.26 0.25 0.24 0.22 0.23 0.24 0.26 0.28 0.31 0.31 0.28 0.27 0.28 0.30 0.31 0.30 0.30
0.70 0.71 0.64 0.54 0.48 0.46 0.43 0.45 0.46 0.39 0.31 0.23 0.22 0.23 0.23 0.21 0.20 0.22 0.21 0.18 0.18 0.18 0.19 0.21 0.23 0.24 0.24 0.21 0.19 0.19 0.19 0.20 0.22 0.24 0.25 0.27 0.28 0.26 0.25 0.27 0.27 0.28 0.28